Tracking 30292 objects as of 29-Apr-2025
HD Live streaming from Space Station
objects crossing your sky now

ANIK C1 R/B(PAM-D)

Track ANIK C1 R/B(PAM-D) now!


NORAD ID: 15644
Int'l Code: 1985-028D
Perigee: 341.7 km
Apogee: 29,461.4 km
Inclination: 23.3 °
Period: 514.6 minutes
Semi major axis: 21272 km
RCS: 2.9686 m2 (large)
Launch date: April 12, 1985
Source: United States (US)
Launch site: AIR FORCE EASTERN TEST RANGE (AFETR)

Note: This is a ROCKET BODY
Your satellite tracking list
Your tracking list is empty




NASA's NSSDC Master Catalog

Two Line Element Set (TLE):
1 15644U 85028D   25118.28938575  .00001813  00000-0  13719-2 0  9993
2 15644  23.3449 346.5215 6844425 340.0124   2.8823  2.79816043375121
Source of the keplerian elements: AFSPC